This is the latest recevied weather packets stored in our database for station/object K7UHP. If no packets are shown the sender has not sent any weather packets the latest 10 day(s).
| Time | Temp. | Humidity | Pressure | Rain* | Wind** | Luminosity | Snow |
|---|---|---|---|---|---|---|---|
| 1777514954 | 14.44° C | 36% | 1018.4 hPa | 0 mm | - | - | - |
| 1777514353 | 14.44° C | 35% | 1018.4 hPa | 0 mm | - | - | - |
| 1777513752 | 15° C | 35% | 1018.3 hPa | 0 mm | - | - | - |
| 1777513151 | 15° C | 33% | 1018.4 hPa | 0 mm | - | - | - |
| 1777512550 | 15.56° C | 33% | 1018.3 hPa | 0 mm | - | - | - |
| 1777511950 | 15.56° C | 32% | 1018.4 hPa | 0 mm | - | - | - |
| 1777511349 | 15.56° C | 31% | 1018.5 hPa | 0 mm | - | - | - |
| 1777510748 | 15° C | 33% | 1018.5 hPa | 0 mm | - | - | - |
| 1777510147 | 15° C | 33% | 1018.4 hPa | 0 mm | - | - | - |
| 1777509547 | 15° C | 32% | 1018.5 hPa | 0 mm | - | - | - |
| 1777508946 | 15° C | 33% | 1018.7 hPa | 0 mm | - | - | - |
| 1777508345 | 15° C | 35% | 1018.7 hPa | 0 mm | - | - | - |
| 1777507744 | 15° C | 35% | 1018.7 hPa | 0 mm | - | - | - |
| 1777507144 | 15° C | 35% | 1018.7 hPa | 0 mm | - | - | - |
| 1777506543 | 15.56° C | 34% | 1018.7 hPa | 0 mm | - | - | - |
| 1777505942 | 15.56° C | 32% | 1018.6 hPa | 0 mm | - | - | - |
| 1777505341 | 15.56° C | 33% | 1018.6 hPa | 0 mm | - | - | - |
| 1777504741 | 16.11° C | 30% | 1018.6 hPa | 0 mm | - | - | - |
| 1777504140 | 16.11° C | 31% | 1018.5 hPa | 0 mm | - | - | - |
| 1777503539 | 16.11° C | 28% | 1018.5 hPa | 0 mm | - | - | - |
| 1777502939 | 16.11° C | 27% | 1018.6 hPa | 0 mm | - | - | - |
| 1777502309 | 16.67° C | 27% | 1018.7 hPa | 0 mm | - | - | - |
| 1777501709 | 16.11° C | 27% | 1018.6 hPa | 0 mm | - | - | - |
| 1777501109 | 16.11° C | 25% | 1018.7 hPa | 0 mm | - | - | - |
| 1777500479 | 15.56° C | 26% | 1018.7 hPa | 0 mm | - | - | - |
* Rain latest hour (hover to see other rain measurements)
** Current wind speed in m/s (hover to see current wind gust speed)